Wetbulb
63.69 64.00 64.94 64.78 64.24 63.72 63.99 63.73 62.41 62.41 62.20 61.99 61.76 60.94 60.70 60.05 59.68 59.79 59.95 60.18 60.48 60.38 60.29 59.92 59.21 58.90 58.57 58.53 58.98 58.54 57.62 58.29 60.00 61.34 61.26 62.47 61.88 61.34 60.87 60.23 60.40 60.71 60.74
63.67 64.12 64.51 64.05 64.21 63.55 63.59 63.05 62.08 62.20 61.78 61.73 60.52 59.82 59.56 59.49 59.45 59.26 59.38 59.60 59.55 59.92 59.80 59.06 59.09 58.29 57.86 57.92 57.65 57.53 56.51 56.35 57.98 58.72 59.39 59.73 60.46 59.86 59.05 59.16 59.06 59.70 59.98
63.45 63.75 63.78 64.09 63.86 63.79 63.55 62.22 62.51 61.71 61.52 60.91 59.77 59.47 59.19 58.87 58.64 58.59 58.54 58.71 59.17 59.45 59.66 58.70 58.41 57.65 56.82 56.60 56.48 56.39 56.03 55.06 56.10 57.05 58.06 60.83 60.03 58.39 58.23 57.58 58.03 58.02 58.38
62.94 62.96 62.82 63.78 63.84 63.54 62.72 61.90 61.21 61.07 60.82 59.96 59.26 58.86 58.54 58.06 57.85 57.58 57.58 57.67 58.06 58.86 58.75 58.43 57.88 56.73 55.55 54.85 54.79 54.43 54.40 54.18 53.80 55.62 57.87 57.91 57.12 57.75 57.27 57.05 56.68 56.54 57.01
60.96 62.50 63.21 63.71 62.98 62.73 61.48 60.47 59.91 59.91 59.49 58.94 58.34 58.13 57.80 57.53 57.09 57.21 56.82 56.92 57.35 58.18 57.74 57.37 56.41 55.39 54.17 53.84 53.67 53.60 53.04 52.62 52.49 53.72 55.40 56.47 57.95 58.46 57.49 55.58 56.82 55.99 57.00
61.97 62.48 62.91 62.53 62.11 61.70 60.26 59.81 59.19 58.82 58.26 57.55 57.60 58.05 57.85 57.92 57.35 56.96 56.55 56.87 56.82 56.57 56.30 55.93 54.91 54.12 52.84 52.65 52.64 52.99 52.80 52.24 51.02 52.87 54.69 55.76 55.45 58.54 57.89 55.46 55.18 55.05 55.19
61.19 61.99 62.50 61.89 61.43 60.40 59.40 58.91 58.17 57.28 56.71 56.35 56.73 56.69 56.37 56.06 56.20 55.98 56.29 55.64 55.15 54.95 54.94 54.36 53.81 52.77 51.75 51.44 51.57 51.51 51.71 51.52 50.61 51.79 54.16 54.85 56.93 56.92 57.78 56.64 56.18 54.88 54.41
61.12 61.88 61.25 60.91 59.95 58.34 58.33 57.39 56.48 55.89 55.49 56.33 55.90 55.13 54.77 54.80 55.24 54.83 54.80 54.29 53.77 53.14 53.05 52.63 51.78 51.18 50.39 50.14 50.00 50.17 49.87 49.39 50.20 49.61 52.57 54.12 55.61 55.78 56.21 56.70 56.67 56.27 55.78
62.32 62.08 61.74 60.69 58.54 57.46 56.73 56.31 56.62 56.12 55.69 54.68 54.13 53.12 52.74 53.02 52.68 52.73 52.10 52.23 51.96 51.09 51.19 50.82 50.15 49.47 48.70 48.41 48.53 48.70 48.34 47.97 48.35 49.13 49.10 51.79 53.83 54.39 55.47 54.54 54.76 55.23 55.22
60.41 60.00 59.56 59.17 59.15 58.97 58.57 56.10 55.39 54.84 54.10 53.74 52.60 51.59 50.58 50.78 49.97 50.04 50.17 49.77 49.83 49.26 49.19 48.82 48.31 47.60 47.04 45.95 46.33 47.01 46.80 47.72 48.33 48.47 48.79 49.93 50.29 53.42 54.67 53.75 52.95 53.15 53.79
57.60 57.57 57.65 57.55 57.92 58.52 57.83 54.85 53.91 52.84 51.78 51.24 51.62 50.11 51.46 52.32 51.40 50.31 48.14 47.63 47.74 46.94 46.61 46.65 46.45 45.85 45.51 45.79 43.87 44.93 45.79 47.48 47.56 47.91 48.39 48.57 49.35 51.64 53.68 54.09 51.83 51.85 52.38
54.88 55.50 56.67 56.96 57.20 56.13 53.05 53.05 53.96 55.50 54.97 54.37 53.84 53.04 52.52 51.46 50.04 48.87 47.48 45.14 45.10 45.83 44.94 45.02 44.48 45.24 45.84 46.58 46.29 45.75 46.23 46.51 46.55 46.97 47.53 45.94 48.43 51.05 52.10 53.13 52.95 51.01 50.95
54.76 54.89 55.71 56.39 54.10 51.72 51.55 55.22 54.11 55.40 55.08 55.58 53.52 52.89 51.49 51.10 50.54 50.01 49.20 48.49 48.11 46.57 46.88 46.56 46.34 46.29 46.04 45.84 45.43 45.59 45.37 45.56 45.49 45.80 46.39 45.67 47.27 49.77 51.24 52.40 52.91 51.63 50.11
53.94 53.78 53.82 52.01 51.27 53.54 55.83 55.50 54.72 53.66 53.80 54.38 53.15 51.21 51.37 50.32 49.45 48.83 48.12 47.78 47.32 46.79 46.17 46.11 45.68 45.79 45.68 45.45 45.01 44.90 44.85 44.66 44.63 44.82 45.45 45.04 45.58 47.80 50.12 51.30 53.19 52.21 49.93
51.81 53.50 53.48 51.53 52.02 53.30 52.96 51.81 53.57 53.75 54.00 53.79 53.11 51.72 50.57 49.45 48.50 48.33 47.79 47.29 46.83 46.31 45.85 45.38 45.20 44.81 44.96 45.02 44.94 44.42 44.15 44.20 44.38 44.35 44.86 44.38 43.88 45.60 48.04 50.38 52.06 53.00 50.86
52.23 47.64 48.56 49.96 52.38 50.71 52.23 53.80 53.74 53.28 53.03 53.15 52.77 50.92 50.39 49.25 48.30 47.58 47.39 46.72 46.24 45.97 45.66 45.14 44.59 44.25 44.31 44.74 44.19 44.33 43.92 43.99 43.83 44.20 44.60 44.97 43.16 44.13 45.60 47.91 50.61 52.75 51.72
47.92 48.76 48.27 48.39 49.81 51.78 52.60 52.61 51.98 51.49 51.49 51.73 50.81 50.47 49.24 48.94 48.19 47.51 46.60 46.09 45.72 45.53 45.38 44.97 44.51 44.41 43.76 43.88 43.59 43.68 43.63 43.69 43.19 43.40 43.84 44.45 45.05 44.29 43.61 45.32 48.17 50.59 52.24
45.36 44.65 46.08 48.60 51.11 51.66 50.65 49.89 48.98 48.75 49.17 48.56 48.02 48.11 47.73 47.50 47.26 46.47 45.55 45.22 45.57 44.98 44.35 44.07 43.47 42.47 42.53 42.56 42.37 42.45 42.54 42.75 42.85 43.10 43.50 43.52 44.26 44.72 44.83 44.71 47.21 49.29 50.95
45.27 45.20 46.18 49.68 50.15 50.01 49.44 48.90 48.67 48.43 47.36 47.11 46.85 46.29 46.42 45.88 45.65 45.38 44.55 44.68 44.95 43.97 43.41 42.68 41.95 41.88 40.92 41.32 41.27 41.14 41.97 41.63 42.08 42.03 42.29 42.61 43.32 44.22 44.94 43.53 42.85 46.38 48.11
45.67 46.49 47.96 49.33 49.08 48.78 48.77 49.31 49.17 47.93 46.73 46.22 45.35 45.03 45.02 44.65 44.14 44.03 43.87 43.65 43.61 42.47 42.01 41.56 41.14 41.56 41.01 40.80 39.89 39.84 40.97 41.47 41.95 42.19 41.40 41.59 42.81 43.25 44.08 44.57 45.75 46.51 43.63
45.96 49.16 48.68 47.90 47.71 48.09 47.23 45.66 45.26 43.94 44.58 44.49 44.54 44.47 44.02 43.65 43.31 43.13 42.49 42.53 42.45 41.39 41.07 41.24 40.67 39.69 39.58 40.85 38.55 38.86 39.67 40.86 41.32 40.37 40.37 40.68 41.44 42.02 42.96 43.43 44.18 44.96 45.61
48.17 48.49 47.94 47.29 47.10 46.76 46.02 45.33 44.67 44.17 44.25 43.93 43.50 43.52 43.13 42.90 42.81 41.95 41.88 41.53 41.55 40.85 40.93 40.67 40.02 38.68 38.97 39.88 36.55 36.21 33.76 36.78 39.24 39.62 39.74 39.17 39.43 40.68 41.57 42.15 42.88 43.33 44.10
47.93 47.62 47.24 46.76 46.45 45.55 45.55 44.89 43.97 43.71 43.36 41.87 41.86 41.69 42.17 42.33 42.38 42.19 41.75 41.43 41.23 41.14 39.98 40.29 40.14 38.98 36.70 38.57 39.08 35.49 30.60 30.44 33.92 37.94 38.40 38.40 38.52 38.87 39.45 40.53 41.54 42.37 43.09
47.31 47.66 47.02 46.57 45.87 44.96 44.85 43.35 41.91 40.52 39.12 40.45 40.99 41.64 41.93 42.55 42.14 41.87 41.72 41.46 41.22 40.91 40.25 40.24 40.21 39.53 38.55 36.09 37.98 38.14 37.42 35.61 30.70 29.52 36.07 37.35 38.40 37.59 38.85 39.47 40.49 41.24 42.19
47.86 47.41 46.87 46.26 45.28 44.81 44.26 42.68 41.49 40.44 40.63 41.10 41.14 40.82 41.13 41.76 41.90 41.33 41.31 40.94 40.42 40.31 40.58 40.39 39.99 39.38 38.77 37.34 36.59 35.75 35.47 35.17 35.28 31.70 28.97 32.45 36.12 37.13 37.75 39.07 39.95 40.56 41.18
47.75 46.91 46.43 45.64 44.34 44.36 43.01 42.15 41.30 40.20 40.01 39.73 39.34 38.78 39.03 39.90 40.17 40.44 39.93 39.82 39.81 39.69 39.33 39.27 39.42 38.92 38.28 37.76 37.08 36.00 34.45 32.40 31.75 31.44 28.71 29.85 30.74 33.70 35.38 37.75 37.84 39.22 40.90
MSLP
1020.64 1021.16 1021.48 1021.71 1021.95 1022.10 1022.16 1022.29 1022.30 1022.32 1022.41 1022.44 1022.44 1022.48 1022.48 1022.46 1022.39 1022.22 1021.91 1021.88 1021.60 1021.50 1021.23 1021.22 1021.05 1020.87 1020.65 1020.28 1020.11 1019.98 1019.61 1019.25 1018.86 1018.46 1018.02 1017.45 1017.38 1017.39 1017.34 1017.39 1017.05 1016.10 1016.81
1020.83 1021.26 1021.66 1021.84 1022.13 1022.31 1022.52 1022.56 1022.64 1022.81 1022.64 1022.83 1022.84 1022.97 1022.87 1022.76 1022.74 1022.57 1022.33 1022.02 1021.93 1021.79 1021.35 1021.52 1021.29 1021.16 1021.03 1020.75 1020.59 1020.25 1020.00 1019.67 1019.29 1018.89 1018.34 1017.84 1017.56 1017.69 1017.68 1017.63 1017.47 1017.04 1017.09
1020.87 1021.35 1021.70 1022.18 1022.35 1022.42 1022.58 1022.81 1022.94 1022.93 1023.06 1023.10 1023.26 1023.21 1023.11 1023.11 1023.01 1022.88 1022.68 1022.49 1022.18 1021.87 1021.61 1021.57 1021.58 1021.52 1021.37 1021.11 1020.85 1020.64 1020.25 1019.96 1019.67 1019.08 1018.40 1016.98 1016.72 1017.79 1017.82 1017.78 1017.76 1017.56 1017.34
1021.24 1021.55 1021.76 1022.26 1022.52 1022.73 1022.91 1023.09 1023.21 1023.28 1023.30 1023.34 1023.52 1023.45 1023.31 1023.37 1023.33 1023.17 1023.06 1022.84 1022.55 1022.19 1022.01 1021.84 1021.83 1021.78 1021.70 1021.50 1021.19 1020.85 1020.62 1020.25 1019.90 1019.27 1017.66 1017.41 1017.17 1017.90 1017.94 1017.90 1017.93 1017.76 1017.52
1021.68 1021.87 1022.24 1022.65 1022.91 1023.03 1023.21 1023.54 1023.71 1023.75 1023.73 1023.64 1023.70 1023.66 1023.55 1023.55 1023.49 1023.34 1023.17 1023.05 1022.68 1022.47 1022.36 1022.18 1022.21 1022.10 1021.89 1021.69 1021.39 1021.08 1020.83 1020.53 1020.04 1019.15 1017.72 1017.77 1017.57 1017.67 1018.01 1017.98 1017.76 1017.75 1017.78
1021.93 1022.20 1022.62 1022.92 1023.24 1023.45 1023.77 1023.83 1024.08 1024.20 1024.15 1024.13 1024.05 1023.99 1023.95 1023.81 1023.64 1023.48 1023.26 1023.11 1022.93 1022.83 1022.64 1022.46 1022.42 1022.27 1022.07 1021.87 1021.56 1021.26 1020.94 1020.65 1020.06 1018.08 1017.89 1017.70 1017.85 1018.06 1017.91 1017.86 1017.92 1017.90 1017.80
1022.21 1022.53 1022.85 1023.32 1023.62 1023.80 1024.08 1024.21 1024.39 1024.51 1024.42 1024.43 1024.37 1024.32 1024.41 1024.22 1023.91 1023.74 1023.41 1023.47 1023.36 1023.13 1022.95 1022.73 1022.59 1022.47 1022.27 1022.10 1021.82 1021.51 1021.26 1020.83 1019.71 1018.25 1017.91 1017.40 1017.43 1018.20 1018.12 1017.97 1017.98 1017.84 1017.83
1022.37 1022.61 1023.01 1023.82 1024.20 1024.45 1024.46 1024.66 1024.85 1024.85 1024.77 1024.73 1024.75 1024.76 1024.75 1024.60 1024.34 1024.11 1023.90 1023.68 1023.67 1023.55 1023.26 1022.96 1022.92 1022.72 1022.50 1022.35 1022.08 1021.72 1021.49 1021.06 1019.69 1018.52 1018.36 1017.55 1018.09 1018.47 1018.27 1018.20 1018.16 1018.00 1017.98
1022.31 1022.58 1023.03 1023.65 1024.64 1024.88 1025.08 1025.15 1025.14 1025.14 1025.13 1025.11 1025.09 1025.07 1025.07 1024.89 1024.64 1024.39 1024.30 1024.05 1023.92 1023.74 1023.49 1023.25 1023.12 1022.92 1022.72 1022.47 1022.21 1021.90 1021.63 1021.11 1020.08 1018.63 1018.58 1017.82 1018.68 1018.68 1018.20 1018.27 1018.21 1018.17 1018.11
1022.44 1023.03 1023.61 1023.86 1024.02 1024.28 1024.79 1025.47 1025.55 1025.67 1025.56 1025.45 1025.43 1025.33 1025.18 1024.79 1024.74 1024.71 1024.39 1024.47 1024.28 1024.05 1023.78 1023.54 1023.28 1023.07 1022.80 1022.46 1022.29 1021.99 1021.52 1020.78 1019.27 1018.83 1018.40 1017.99 1018.97 1018.87 1018.35 1018.07 1018.26 1018.21 1018.14
1022.80 1023.16 1023.70 1024.00 1024.27 1024.39 1024.80 1025.60 1025.74 1025.80 1025.73 1025.40 1025.22 1025.36 1024.63 1024.48 1024.48 1024.26 1024.99 1024.84 1024.58 1024.37 1024.03 1023.74 1023.40 1023.10 1022.59 1021.72 1021.73 1021.77 1021.26 1019.77 1019.72 1018.96 1018.50 1019.00 1019.32 1018.92 1018.43 1017.97 1018.09 1018.21 1018.16
1022.92 1023.26 1023.73 1024.06 1024.33 1024.75 1025.35 1025.70 1025.73 1025.27 1025.15 1025.03 1025.12 1025.14 1024.67 1024.97 1025.08 1024.58 1024.51 1024.66 1024.39 1024.27 1023.61 1023.43 1023.13 1022.66 1021.84 1021.35 1020.91 1020.89 1020.34 1020.31 1019.81 1019.16 1018.73 1019.28 1019.46 1019.02 1018.45 1017.97 1017.67 1017.99 1018.11
1023.44 1024.02 1024.22 1025.21 1025.91 1025.99 1025.65 1025.50 1025.42 1024.92 1024.99 1024.80 1025.24 1025.31 1025.18 1024.79 1024.76 1024.15 1023.92 1023.87 1023.79 1023.56 1022.98 1022.73 1022.22 1022.02 1022.22 1021.92 1021.43 1021.11 1020.87 1020.42 1019.66 1019.27 1018.79 1019.13 1019.45 1019.11 1018.53 1017.95 1017.41 1017.50 1017.90
1023.67 1024.41 1024.98 1025.94 1026.31 1025.92 1025.17 1025.13 1025.23 1024.98 1025.04 1024.74 1025.15 1025.56 1025.01 1024.62 1024.64 1024.39 1024.16 1024.09 1023.76 1023.42 1023.17 1022.75 1022.27 1022.34 1022.07 1021.79 1021.55 1021.17 1020.84 1020.46 1019.89 1019.54 1018.88 1018.96 1019.28 1019.06 1018.54 1017.94 1017.15 1017.00 1017.55
1024.47 1025.12 1025.67 1026.42 1026.35 1025.93 1025.95 1025.90 1025.59 1025.25 1025.03 1025.23 1025.12 1025.46 1025.40 1024.94 1024.74 1024.44 1024.34 1024.05 1023.71 1023.49 1023.01 1022.66 1022.25 1022.02 1021.61 1021.23 1021.11 1020.82 1020.54 1020.23 1019.91 1019.45 1018.88 1018.76 1019.07 1018.89 1018.45 1017.90 1017.26 1016.59 1016.95
1025.45 1026.26 1026.77 1026.47 1026.36 1026.57 1026.11 1025.85 1025.48 1025.41 1025.41 1025.23 1025.18 1025.62 1025.52 1025.33 1025.10 1024.64 1024.17 1023.87 1023.57 1023.51 1023.25 1022.72 1022.37 1021.88 1021.38 1021.02 1020.63 1020.47 1020.30 1019.90 1019.57 1019.30 1018.78 1018.27 1018.48 1018.54 1018.26 1017.85 1017.22 1016.62 1016.35
1026.50 1026.83 1027.08 1027.40 1026.99 1026.34 1026.11 1025.96 1025.91 1025.97 1025.88 1025.52 1025.59 1025.69 1025.74 1025.50 1025.30 1025.00 1024.23 1023.87 1023.71 1023.74 1023.25 1022.73 1022.40 1021.83 1021.35 1020.82 1020.46 1020.17 1019.87 1019.44 1019.18 1019.09 1018.89 1018.29 1017.78 1017.63 1017.73 1017.66 1017.12 1016.69 1016.40
1027.44 1027.62 1027.65 1027.07 1026.53 1026.61 1026.82 1026.72 1026.63 1026.63 1026.16 1025.93 1025.85 1025.84 1026.12 1025.75 1025.57 1025.15 1024.35 1024.04 1024.13 1023.75 1023.24 1022.80 1022.45 1021.94 1021.40 1020.96 1020.41 1020.04 1019.64 1019.20 1018.87 1018.94 1018.66 1018.48 1017.92 1017.53 1016.90 1017.23 1017.03 1016.42 1016.14
1027.83 1027.79 1027.50 1026.99 1026.96 1026.97 1027.24 1027.00 1026.92 1026.81 1026.50 1026.34 1026.21 1026.11 1026.35 1025.94 1025.83 1025.42 1024.60 1024.40 1024.48 1023.83 1023.37 1023.03 1022.69 1022.29 1021.58 1021.00 1020.53 1020.14 1019.46 1018.88 1018.64 1018.47 1018.57 1018.48 1018.10 1017.77 1017.28 1016.79 1017.09 1016.74 1016.37
1027.99 1027.86 1027.48 1027.30 1027.35 1027.37 1027.03 1026.66 1026.30 1026.35 1026.45 1026.58 1026.48 1026.64 1026.62 1026.19 1026.09 1025.69 1024.91 1024.74 1024.49 1023.87 1023.48 1023.33 1022.99 1022.39 1021.84 1021.12 1020.70 1019.90 1019.23 1018.81 1018.71 1018.52 1018.31 1018.02 1017.72 1017.75 1017.44 1017.19 1016.57 1015.98 1016.97
1028.05 1027.63 1027.62 1027.74 1027.87 1027.33 1026.90 1026.82 1026.60 1026.57 1026.56 1026.57 1026.62 1026.82 1026.78 1026.61 1026.26 1025.75 1025.12 1024.73 1024.41 1023.95 1023.76 1023.39 1022.89 1022.26 1021.60 1021.10 1020.63 1019.68 1018.89 1018.26 1018.79 1018.36 1018.07 1017.75 1017.49 1017.36 1017.21 1017.22 1017.01 1016.34 1016.24
1027.81 1027.89 1027.99 1028.10 1028.17 1027.90 1027.56 1027.60 1027.54 1027.28 1026.94 1026.89 1026.72 1026.70 1026.66 1026.65 1026.33 1025.86 1025.52 1024.90 1024.48 1023.99 1023.55 1023.17 1022.82 1022.22 1021.61 1021.19 1020.67 1019.96 1018.64 1018.00 1017.29 1018.00 1017.99 1017.95 1017.64 1017.42 1016.93 1016.84 1016.93 1016.95 1016.77
1027.93 1028.14 1028.31 1028.49 1028.51 1028.71 1028.47 1027.88 1027.59 1027.03 1026.63 1026.71 1026.61 1026.40 1026.54 1026.47 1026.18 1025.84 1025.41 1024.99 1024.49 1023.95 1023.26 1022.94 1022.41 1022.19 1021.40 1021.05 1020.74 1020.42 1019.83 1018.85 1018.70 1018.33 1017.80 1017.84 1017.78 1017.55 1017.23 1016.82 1016.74 1016.75 1016.77
1028.15 1028.40 1028.58 1028.71 1028.78 1028.94 1029.04 1028.33 1028.14 1027.54 1027.24 1027.27 1026.94 1026.72 1026.38 1026.20 1025.95 1025.61 1025.26 1024.85 1024.37 1023.77 1023.15 1022.57 1022.10 1021.92 1021.38 1020.58 1020.30 1020.16 1019.91 1019.58 1019.24 1018.53 1018.06 1017.52 1017.37 1017.06 1016.77 1016.61 1016.23 1016.26 1016.38
1028.09 1028.50 1028.88 1028.91 1029.05 1029.19 1029.06 1029.00 1028.49 1028.19 1027.88 1027.50 1027.18 1026.81 1026.29 1025.94 1025.70 1025.43 1025.22 1024.86 1024.25 1023.65 1023.05 1022.55 1022.05 1021.61 1021.23 1020.64 1020.18 1019.96 1019.91 1019.74 1019.19 1018.48 1017.60 1017.10 1016.86 1016.65 1016.30 1016.13 1015.86 1015.81 1015.85
1028.39 1028.77 1029.04 1029.02 1029.27 1029.34 1029.23 1029.13 1028.99 1028.71 1028.30 1027.75 1027.41 1026.81 1026.37 1025.83 1025.44 1025.28 1025.28 1024.76 1024.25 1023.64 1023.11 1022.56 1022.02 1021.48 1021.01 1020.62 1020.24 1019.96 1019.65 1019.44 1019.02 1018.60 1018.32 1017.80 1017.10 1016.73 1016.59 1016.33 1016.03 1015.56 1015.29
Wind_Speed
10 11 13 13 13 12 12 13 11 12 12 12 13 13 14 13 13 12 13 13 14 13 13 13 13 13 13 13 14 15 15 14 12 11 10 7 8 8 9 9 11 8 10
13 12 13 13 12 12 12 12 11 11 12 13 14 13 13 13 14 13 13 13 13 13 14 14 14 15 14 14 14 15 15 14 12 10 8 2 6 6 6 7 8 10 10
14 12 12 12 12 13 12 11 12 10 12 14 13 13 14 14 14 13 13 13 13 13 13 13 13 15 14 14 14 15 15 15 13 10 9 6 4 5 4 4 5 7 8
12 11 11 13 14 13 13 13 11 11 12 13 12 13 13 13 13 12 12 12 12 12 14 13 13 13 14 14 13 13 14 14 14 14 9 5 5 6 3 3 3 4 6
12 10 13 15 14 14 13 11 11 11 12 13 12 11 12 11 11 12 11 11 11 13 13 14 13 14 14 14 14 14 13 14 14 14 6 6 8 8 6 1 5 2 4
12 13 14 15 14 13 12 12 11 11 11 11 11 14 14 13 12 12 11 11 12 13 14 14 13 14 14 14 15 15 13 14 18 8 7 1 9 10 5 2 2 3 3
13 12 13 15 13 12 12 12 11 10 10 10 10 13 13 13 12 12 12 13 14 14 14 13 13 13 14 14 14 15 15 16 12 10 8 7 2 8 5 4 4 4 3
12 11 11 14 13 11 12 11 10 9 10 11 13 13 13 12 13 14 13 13 13 14 13 13 12 13 14 14 14 14 15 14 14 9 8 8 11 9 4 6 5 4 3
11 10 10 12 12 12 11 10 10 12 12 12 12 12 12 12 12 13 11 13 13 13 13 12 12 13 13 13 13 13 13 14 13 7 8 7 11 10 9 3 5 5 3
11 11 10 9 9 8 10 11 11 11 10 11 11 10 8 7 9 10 12 13 12 11 11 11 11 12 12 10 11 13 14 16 10 9 7 4 11 13 12 7 6 6 6
10 10 9 9 8 7 8 8 7 8 7 5 4 7 5 7 7 8 10 11 10 10 10 10 11 11 12 9 5 10 15 6 9 8 7 10 11 14 14 13 7 8 8
11 11 9 8 8 7 6 4 3 3 5 6 6 6 5 6 6 7 4 4 4 10 6 8 7 11 9 9 7 8 6 9 9 8 8 7 13 15 16 16 12 9 9
11 8 9 8 7 4 3 2 2 3 4 3 5 7 5 5 5 6 6 6 8 8 7 9 8 7 10 8 8 8 9 9 7 7 10 9 14 16 17 18 17 10 9
11 9 10 7 2 3 2 3 4 4 5 4 5 5 4 5 6 6 6 7 7 7 7 8 6 8 9 9 9 9 10 9 7 7 10 12 14 18 19 18 19 14 9
11 9 9 7 5 5 6 3 3 4 5 6 4 4 6 6 6 6 6 7 7 8 8 8 9 9 9 9 10 10 11 11 11 7 7 11 13 17 19 20 21 18 13
11 11 8 7 8 5 4 5 5 5 6 4 4 6 7 7 6 8 8 8 8 9 9 9 10 10 9 9 10 11 12 11 11 11 8 9 9 14 17 19 22 22 16
10 10 7 6 4 6 7 7 6 7 6 5 5 6 9 8 9 9 9 8 8 10 11 10 10 10 9 9 11 10 10 11 10 9 8 8 9 10 9 15 20 23 19
11 8 6 5 7 8 7 7 5 5 5 6 6 7 10 10 10 10 8 8 9 10 9 9 9 10 10 10 10 9 10 11 10 9 8 7 8 8 9 5 12 16 19
8 8 8 9 10 8 7 6 4 6 6 6 6 7 10 9 10 10 9 9 11 9 9 9 9 10 10 10 10 10 10 9 8 6 8 8 8 7 7 3 6 10 6
10 8 9 9 10 8 6 4 4 4 6 6 6 7 9 9 11 10 8 9 9 8 8 9 11 9 10 10 10 11 10 7 8 4 7 8 8 7 8 7 7 4 6
7 9 10 11 10 7 8 8 7 7 6 6 6 8 10 10 10 11 9 9 9 9 9 10 10 11 9 9 10 10 11 6 4 5 9 7 8 8 7 7 6 5 4
9 9 10 10 9 10 7 7 6 6 6 6 6 7 8 9 10 10 10 10 10 9 10 10 11 9 10 8 10 10 8 9 5 8 6 9 8 8 9 9 7 8 7
9 9 8 8 9 9 10 7 8 6 6 7 8 8 10 10 11 11 11 10 11 10 9 11 10 12 10 10 10 9 7 10 13 11 10 8 8 9 10 11 11 10 9
8 7 7 7 8 8 10 9 10 9 9 8 8 9 10 11 11 12 12 12 12 10 11 11 10 11 12 11 9 9 10 11 10 11 11 10 11 10 10 9 9 10 11
6 6 6 7 8 8 9 10 9 10 8 9 9 12 11 11 11 12 12 14 12 10 12 13 13 12 11 11 10 10 11 11 13 12 13 13 11 11 9 9 9 9 11
7 6 6 7 8 8 9 10 11 11 11 10 12 11 10 10 9 12 14 13 13 12 12 12 13 14 12 11 10 11 10 11 11 12 12 14 15 12 10 8 9 10 9
Wind_Direction
114 120 120 111 110 106 101 95 86 88 80 73 69 63 61 56 52 48 49 43 41 41 40 33 27 27 24 22 22 17 12 7 8 2 2 29 46 45 37 28 341 34 14
121 121 118 115 115 108 102 97 94 84 84 78 71 68 66 60 53 52 45 45 39 30 38 30 32 23 26 20 18 14 6 6 357 354 334 201 90 47 43 18 12 25 12
120 126 120 116 116 111 106 94 90 92 82 78 72 69 64 57 52 50 44 36 28 29 33 35 34 24 17 13 11 6 3 359 350 337 307 291 2 40 32 31 11 1 5
119 118 123 115 105 99 92 84 77 75 80 77 68 59 57 51 46 43 38 32 25 30 31 34 29 25 16 9 6 5 -0 353 344 317 264 306 295 68 30 7 11 351 338
113 115 108 106 101 96 87 83 79 75 75 72 63 55 52 43 42 39 33 25 24 35 29 24 21 15 13 4 0 353 358 351 332 285 324 296 314 70 323 303 225 237 11
111 112 108 103 93 90 91 90 84 81 77 70 61 48 44 40 38 32 27 35 33 24 18 16 13 13 9 3 356 353 355 346 317 313 303 188 267 19 302 283 246 306 340
116 121 107 96 98 94 96 90 86 82 78 63 54 50 41 32 32 27 42 29 19 14 10 6 12 10 6 2 355 351 346 338 321 310 293 284 346 346 344 338 339 290 293
123 119 113 98 89 94 92 88 80 75 71 61 55 45 40 33 39 32 31 24 19 7 5 11 9 6 4 359 351 348 344 338 304 312 312 287 55 329 355 28 19 11 323
116 109 110 108 105 93 85 80 78 70 73 64 62 54 45 42 38 37 30 17 14 5 8 11 7 1 358 353 349 344 336 324 299 307 299 290 40 320 303 337 360 12 344
112 111 105 108 102 111 108 78 73 70 65 68 59 52 35 65 34 34 15 22 16 9 9 3 1 354 345 340 345 341 325 291 296 305 289 321 340 304 293 286 308 322 318
115 115 116 117 105 101 90 93 115 99 96 104 84 49 23 27 15 20 43 16 14 5 0 356 352 343 332 294 308 333 303 325 317 299 295 31 322 298 290 280 263 288 293
126 124 117 118 101 82 65 47 38 64 44 32 30 14 14 11 15 348 29 11 359 356 332 344 343 314 316 340 332 310 326 325 293 300 288 355 312 300 291 278 258 258 281
117 110 110 77 53 56 106 55 309 17 0 50 37 6 26 346 358 354 351 353 345 357 354 340 333 340 341 330 332 326 324 312 309 303 293 298 299 297 290 283 268 236 259
115 109 82 74 44 53 15 49 344 6 336 358 37 355 339 344 350 351 358 339 338 346 347 341 333 329 318 318 319 318 319 312 314 307 292 288 294 294 287 280 277 252 233
96 95 65 51 48 54 44 26 340 342 360 347 359 20 343 338 351 338 334 328 335 340 342 335 333 328 321 319 321 319 320 312 310 297 301 295 290 292 286 278 271 256 225
87 74 76 73 49 57 59 10 358 3 346 345 335 6 342 339 346 327 326 335 341 342 339 332 339 325 322 317 317 319 313 309 315 306 304 299 296 288 286 278 269 268 235
91 82 72 67 63 35 17 5 12 14 344 352 352 359 350 337 335 328 329 333 342 332 327 328 329 323 319 317 313 313 308 305 307 301 303 304 305 285 278 280 270 268 258
72 75 70 58 44 45 39 33 30 20 2 6 3 356 359 349 344 328 328 335 348 323 328 330 329 325 321 318 317 319 312 311 304 288 275 313 313 317 304 7 328 291 246
79 75 69 52 46 39 42 26 26 20 10 4 357 1 0 353 347 334 330 333 334 321 326 329 328 322 319 316 318 313 305 308 307 298 295 296 295 297 321 8 327 356 309
80 74 64 54 44 40 17 355 9 11 6 7 4 4 352 351 342 332 325 333 320 322 328 334 321 322 311 318 321 304 312 302 315 299 301 285 287 298 291 312 308 148 33
96 72 55 52 37 14 17 7 359 355 6 359 353 357 342 349 343 335 335 330 328 322 326 321 321 320 317 320 313 318 304 264 274 298 327 314 301 287 294 284 284 294 198
83 67 57 46 30 24 23 9 356 350 351 340 355 343 348 343 340 332 333 326 332 320 316 318 316 315 313 327 313 319 321 300 193 329 304 316 314 306 283 263 277 271 272
76 64 56 44 35 31 358 10 356 357 350 358 351 352 346 343 337 335 330 324 319 311 314 313 312 308 311 308 313 308 319 312 324 308 308 308 304 304 297 289 266 259 254
83 76 59 36 28 32 16 9 3 356 353 355 346 347 333 341 335 335 335 329 319 316 308 310 310 305 298 304 304 302 297 285 281 295 293 284 289 286 286 278 271 252 255
94 73 47 34 31 24 20 10 359 3 352 346 349 341 343 338 339 335 338 328 325 317 319 311 309 309 302 297 297 302 308 303 296 294 296 297 295 289 296 285 257 261 255
67 59 37 21 26 20 14 13 7 359 350 348 352 345 345 341 338 342 338 331 325 325 324 316 312 303 305 300 301 300 296 292 289 291 295 293 298 303 299 279 276 266 248